Showing default

CONNECTA IOT-7, 62715

Orbit data source: Space-Track

CONNECTA IOT-7, 62715 is a payload satellite owned by Plan-S (TR) in SSO that was launched on Tue, 14 Jan 2025 UTC via an FALCON 9 launch vehicle from the Air Force Western Test Range (AFWTR). Payload-class satellites include a variety of spacecraft equipped with specific instruments for various scientific and technological missions. These include communications satellites like Starlink; space stations such as the ISS; scientific satellites like the Hubble; Earth observation satellites from companies like Planet Labs, Umbra, and HawkEye 360; GPS; miniature CubeSats for education and research; and military/defense satellites.

Loading next visibility...
Identifier
62715, 2025-009DL
Orbit
SSO
Country
Flag of TRTR / TURK
Related business
Manufacturer
Plan-S
Mission
Operational Commercial Communications
Bus & Motor
CUBESAT 6U, Unknown motor
Mass
10 kg wet, 10 kg dry
Launch date (UTC)
2025-01-14 (1 year ago)
Launch vehicle
FALCON 9
Launch site
Air Force Western Test Range (AFWTR)
Object type
Payload
Rocket body
Debris
Shape & HBR
Box, 2.2 m
Radar Cross Section
0.080 m², Medium (>0.1 m² and < 1m²)

Expand to show TLE details & history
Last TLE update: 10 hours ago

TLE from 10 hours ago
0 CONNECTA IOT-7
1 62715U 25009DL  26171.45162837  .00000636  00000-0  64597-4 0  9990
2 62715  97.7083 250.1532 0002051 134.2221 225.9168 14.94185596 77838
Epoch: 2026-06-20T10:50Z
TLE epoch observation values (Epoch: 2026-06-20T10:50:20.691Z)
Latitude
Longitude
178.90093°
Altitude
588.942 km
Speed
7.565 km/s
True Right ascension
16h 40m 36s
True Declination
0° 00' 00"
Sunlit
Object was in full shadow at epoch
Visualization orbit readout
Latitude
Unknown
Longitude
Unknown
Altitude
Unknown
Speed
Unknown
Apparent Right ascension
Unknown
Apparent Declination
Unknown
Sunlit
N/A
Visualization observer readout
Local Sidereal Time
07:23:58
Azimuth
Unknown
Elevation
Unknown
Doppler factor
Unknown
Orbital elements
Apogee altitude
583.343 km
Perigee altitude
580.488 km
Semi-major axis
6,960.052 km
Eccentricity
0.00021
Inclination
97.7083°
RAAN
250.1532°
Arg. of periapsis
134.2221°
True anomaly
225.89992°
Mean anomaly
225.9168°
Eccentric anomaly
225.90836°
Mean motion
3.73787 °/min
Orbital period
96.31 mins
BSTAR
0.000064597
Loading maneuver chart data...
Computing Atmospheric mass density...
Loading historical data...
Loading historical data...
Loading historical data...
Loading historical data...
Loading historical data...
Loading historical data...
Loading historical data...

Documentation

Showing up to 5 results
|